This demonstration page uses our WeatherBlox Daily Observations layout. Learn more.

Left ArrowRight Arrow

38.80484, -77.04692

Hourly Observations for December 16, 2021

Temp ( °F °C ) Dew Point ( °F °C ) Humidity (%) Winds ( mph kmh ) Pressure ( in mb ) Visibility ( mi km ) Precip ( " mm )
12:52 am 00:52 Mostly Cloudy 48 8.9 44 6.7 86 86 SSW 8 13 30.27 1025 10 16 0.00 0.00
1:52 am 01:52 Partly Cloudy 46 7.8 42 5.6 86 86 SSW 6 9 30.27 1025 10 16 0.00 0.00
2:52 am 02:52 Mostly Clear 47 8.3 42 5.6 83 83 S 12 19 30.24 1024 10 16 0.00 0.00
3:52 am 03:52 Partly Cloudy 47 8.3 42 5.6 83 83 S 10 17 30.22 1023 10 16 0.00 0.00
4:52 am 04:52 Mostly Cloudy 46 7.8 41 5 83 83 S 9 15 30.21 1023 10 16 0.00 0.00
5:52 am 05:52 Mostly Cloudy 46 7.8 40 4.4 79 79 S 9 15 30.20 1023 10 16 0.00 0.00
6:52 am 06:52 Mostly Cloudy 46 7.8 39 3.9 77 77 SSW 6 9 30.21 1023 10 16 0.00 0.00
7:52 am 07:52 Partly Cloudy 47 8.3 37 2.8 69 69 SSW 7 11 30.19 1022 10 16 0.00 0.00
8:52 am 08:52 Partly Cloudy 50 10 37 2.8 61 61 SSW 9 15 30.19 1022 10 16 0.00 0.00
9:52 am 09:52 Mostly Cloudy 53 11.7 37 2.8 55 55 S 10 17 30.18 1022 10 16 0.00 0.00
11:52 am 11:52 Mostly Cloudy 62 16.7 39 3.9 43 43 undefined N/A 30.11 1020 10 16 0.00 0.00
12:52 pm 12:52 Mostly Cloudy 65 18.3 40 4.4 40 40 SSW 12 19 30.07 1018 10 16 0.00 0.00
1:52 pm 13:52 Mostly Cloudy 66 18.9 41 5 40 40 SSW 13 20 30.04 1017 10 16 0.00 0.00
2:52 pm 14:52 Mostly Cloudy 67 19.4 42 5.6 41 41 S 15 24 30.03 1017 10 16 0.00 0.00
3:52 pm 15:52 Mostly Cloudy 63 17.2 42 5.6 47 47 S 9 15 30.02 1017 10 16 0.00 0.00
4:52 pm 16:52 Mostly Cloudy 60 15.6 43 6.1 53 53 S 10 17 30.01 1016 10 16 0.00 0.00
5:52 pm 17:52 Mostly Cloudy 64 17.8 43 6.1 46 46 SSW 10 17 30.01 1016 10 16 0.00 0.00
6:52 pm 18:52 Mostly Cloudy 58 14.4 45 7.2 62 62 S 10 17 30.02 1017 10 16 0.00 0.00
7:52 pm 19:52 Mostly Cloudy 59 15 45 7.2 60 60 S 13 20 30.02 1017 10 16 0.00 0.00
8:52 pm 20:52 Mostly Cloudy 60 15.6 46 7.8 60 60 SSW 10 17 30.01 1016 10 16 0.00 0.00
9:52 pm 21:52 Mostly Cloudy 63 17.2 47 8.3 56 56 SSW 12 19 30.01 1016 10 16 0.00 0.00
10:52 pm 22:52 Mostly Cloudy 62 16.7 47 8.3 58 58 SSW 10 17 30.01 1016 10 16 0.00 0.00
11:52 pm 23:52 Cloudy 58 14.4 47 8.3 67 67 S 8 13 29.99 1016 10 16 0.00 0.00

Powered by AerisWeather